Regional Weather Roundup
Issued by NWS

Home | Current Version | Previous Version | Graphics & Text | Print | Product List | Glossary On
Versions: 1 2 3 4 5 6 7 8 9 10 11 12 13 14 15 16 17 18 19 20 21 22 23 24 25 26 27 28 29 30 31 32 33 34 35 36 37 38 39 40 41 42 43 44 45 46 47 48 49 50
036
ASUS45 KSLC 191610
RWRUT

UTAH REGIONAL WEATHER ROUNDUP
NATIONAL WEATHER SERVICE SALT LAKE CITY UT
1000 AM MDT SAT AUG 19 2017

UTZ001>011-023>025-191700-

NORTHERN UTAH

CITY           SKY/WX    TMP DP  RH WIND       PRES   REMARKS
BRIGHAM CITY   SUNNY     71  36  28 CALM      30.10S
HILL AFB       SUNNY     70  35  26 E14       30.12R
LOGAN          SUNNY     67  36  31 CALM      30.12S
OGDEN          SUNNY     76  36  23 NE7       30.09S
SALT LAKE CITY MOSUNNY   79  44  28 SE8       30.08R
TOOELE VALLEY  SUNNY     81  39  22 NE5       30.09S
WENDOVER       MOSUNNY   78  34  20 E6        30.08S
HEBER CITY     SUNNY     63  34  34 CALM      30.21S
WEST JORDAN    SUNNY     77  51  40 S15       30.12R

$$

UTZ011>015-024>027-191700-

CENTRAL/NORTHEAST UTAH

CITY           SKY/WX    TMP DP  RH WIND       PRES   REMARKS
PROVO AIRPORT  SUNNY     72  45  37 W3        30.14R
MOAB/CANYONLAN PTSUNNY   82  31  15 SE6       30.09S
DELTA          MOSUNNY   77  36  22 CALM      30.13S
PRICE          PTSUNNY   74  36  25 VRB3      30.21R
ROOSEVELT      SUNNY     73  39  29 CALM      30.19S
VERNAL         SUNNY     75  39  27 VRB3      30.18R

$$

UTZ013>016-019>022-027-191700-

SOUTHERN UTAH

CITY           SKY/WX    TMP DP  RH WIND       PRES   REMARKS
BRYCE CANYON   SUNNY     72  39  30 CALM      30.35S
CEDAR CITY     SUNNY     78  44  29 N6        30.18S
MILFORD        SUNNY     81  37  20 S12       30.13F
ST GEORGE      SUNNY     82  42  24 VRB3      30.03S
HANKSVILLE     SUNNY     81  34  18 CALM      30.12S
BLANDING       SUNNY     75  32  21 SE6       30.29S

$$

REGIONAL REPORTS     COLORADO/ARIZONA

CITY           SKY/WX    TMP DP  RH WIND       PRES   REMARKS
CRAIG, CO      SUNNY     70  39  32 N5        30.25S
GRAND JUNCTION CLOUDY    77  38  24 SE10      30.15S
RIFLE, CO      SUNNY     69  40  34 N5        30.21F
MONTROSE, CO   SUNNY     74  39  28 CALM      30.22F
CORTEZ, CO     SUNNY     75  40  28 CALM      30.23S
COLORADO CITY    N/A     81  43  26 CALM      30.19S
PAGE, AZ       SUNNY     82  38  20 N5        30.10S
GRAND CANYON   MOSUNNY   73  36  25 CALM      30.32R
KINGMAN, AZ    SUNNY     86  41  20 SW3       30.07R
FLAGSTAFF, AZ  SUNNY     73  35  25 VRB3      30.34S

$$

REGIONAL REPORTS    NEVADA/IDAHO/WYOMING

CITY           SKY/WX    TMP DP  RH WIND       PRES   REMARKS
LAS VEGAS, NV  MOSUNNY   90  40  17 CALM      29.96R
ELY, NY        MOSUNNY   73  36  25 CALM      30.23S
ELKO, NV       SUNNY     66  27  23 CALM      30.15F
POCATELLO, ID  SUNNY     75  31  19 SW15      30.11S
BURLEY, ID     SUNNY     69  41  36 W7        30.09R
FORT BRIDGER,    N/A     76  25  15 W8        30.30S
EVANSTON, WY   SUNNY     69  32  25 S7        30.28S
ROCK SPRINGS,  SUNNY     68  30  24 W8        30.26S
KEMMERER, WY     N/A     68  30  24 W3        30.30R

$$




USA.gov is the U.S. government's official web portal to all federal, state and local government web resources and services.